GW6394 Weather Reports


time (UTC)temp
F
wind
direction
speed
knots
gust
knots
rain 1hr
in
rain 24hr
in
rain mn
in
humidity
%
barometer
mb
20260507011007 45 278 0.9 3.5 0.00 0.00 0.00 89 1009.7
20260507010511 45 264 0.9 5.2 0.00 0.00 0.00 90 1009.8
20260507010029 45 233 0.9 5.2 0.00 0.00 0.00 90 1009.5
20260507005509 45 257 0.9 4.3 0.00 0.00 0.00 90 1009.3
20260507005013 45 307 1.7 4.3 0.00 0.00 0.00 91 1009.2
20260507004516 45 243 0.9 3.5 0.00 0.00 0.00 90 1009.3
20260507004003 45 53 0.9 3.5 0.00 0.00 0.00 90 1009.4
20260507003507 45 53 1.7 3.5 0.00 0.00 0.00 90 1009.5
20260507003017 46 228 0.9 3.5 0.00 0.00 0.00 91 1009.4
20260507002507 46 270 0.0 3.5 0.00 0.00 0.00 91 1009.2
20260507002007 46 226 0.9 3.5 0.00 0.00 0.00 90 1009.2
20260507001519 46 236 0.9 7.0 0.00 0.00 0.00 89 1009.0
20260507001009 46 221 0.9 7.0 0.00 0.00 0.00 90 1008.8
20260507000511 46 248 0.9 7.0 0.00 0.00 0.00 90 1008.6
20260507000028 46 49 1.7 5.2 0.00 0.00 0.00 90 1008.5
20260506235510 47 255 0.9 4.3 0.00 0.00 0.00 91 1008.6
20260506235012 47 274 0.9 4.3 0.00 0.00 0.00 91 1008.4
20260506234526 47 231 1.7 6.1 0.00 0.00 0.00 91 1008.5
20260506234012 47 189 0.9 6.1 0.00 0.00 0.00 92 1008.5
20260506233511 47 224 0.9 7.0 0.00 0.00 0.00 92 1008.3
20260506233011 47 275 1.7 7.0 0.00 0.00 0.00 91 1008.3
20260506232503 48 296 1.7 6.1 0.00 0.00 0.00 91 1008.3
20260506232004 48 280 0.9 6.1 0.00 0.00 0.00 91 1008.2
20260506231515 49 344 0.9 6.1 0.00 0.00 0.00 90 1008.2
20260506231003 49 256 0.9 2.6 0.00 0.00 0.00 91 1008.2
20260506230509 50 277 0.0 4.3 0.00 0.00 0.00 91 1008.1
20260506230022 50 257 1.7 4.3 0.00 0.00 0.00 90 1008.1
20260506225512 51 227 1.7 4.3 0.00 0.00 0.00 90 1007.9
20260506225009 52 188 0.0 3.5 0.00 0.00 0.00 91 1007.5
20260506224526 52 205 0.9 4.3 0.00 0.00 0.00 90 1007.6
20260506224010 53 235 1.7 4.3 0.00 0.00 0.00 88 1007.9
20260506223506 54 213 0.9 5.2 0.00 0.00 0.00 88 1007.6
20260506223026 56 255 1.7 5.2 0.00 0.00 0.00 87 1007.7
20260506222507 58 206 0.9 3.5 0.00 0.00 0.00 89 1007.1
20260506222012 58 196 0.9 2.6 0.00 0.00 0.00 88 1006.9
20260506221527 58 198 0.9 2.6 0.00 0.00 0.00 88 1006.8
20260506221009 58 202 0.9 2.6 0.00 0.00 0.00 88 1006.8
20260506220504 59 199 0.9 2.6 0.00 0.00 0.00 88 1006.8
20260506220018 59 143 0.9 3.5 0.00 0.00 0.00 88 1006.8
20260506215508 59 214 0.9 3.5 0.00 0.00 0.00 87 1006.7
20260506215008 59 162 0.9 3.5 0.00 0.00 0.00 88 1006.7
20260506214523 59 204 1.7 3.5 0.00 0.00 0.00 88 1006.7
20260506214008 59 174 0.9 2.6 0.00 0.00 0.00 89 1006.7
20260506213506 58 223 0.9 2.6 0.00 0.00 0.00 89 1006.6
20260506213026 58 213 0.9 2.6 0.00 0.00 0.00 89 1006.5
20260506212509 58 151 0.9 2.6 0.00 0.00 0.00 90 1006.5
20260506212009 58 149 0.9 1.7 0.00 0.00 0.00 90 1006.6
20260506211527 57 200 0.9 3.5 0.00 0.00 0.00 90 1006.7
20260506211011 57 200 0.9 3.5 0.00 0.00 0.00 90 1006.7
20260506210512 58 182 0.9 2.6 0.00 0.00 0.00 90 1006.6
20260506210031 58 144 0.9 2.6 0.00 0.00 0.00 91 1006.6
20260506205505 58 213 0.9 1.7 0.00 0.00 0.00 91 1006.7
20260506205005 57 140 0.9 1.7 0.00 0.00 0.00 90 1006.6
20260506204520 58 214 0.9 1.7 0.00 0.00 0.00 91 1006.6
20260506204007 57 195 0.9 1.7 0.00 0.00 0.00 91 1006.6
20260506203509 57 154 0.9 1.7 0.00 0.00 0.00 91 1006.4
20260506203024 57 141 0.9 2.6 0.00 0.00 0.00 91 1006.4
20260506202507 57 198 0.9 2.6 0.00 0.00 0.00 91 1006.5
20260506202013 57 225 0.9 1.7 0.00 0.00 0.00 91 1006.4
20260506201527 57 211 0.0 2.6 0.00 0.00 0.00 91 1006.5
20260506201009 57 212 0.9 2.6 0.00 0.00 0.00 91 1006.6
20260506200509 57 217 0.9 1.7 0.00 0.00 0.00 91 1006.7
20260506200026 57 56 0.9 3.5 0.00 0.00 0.00 91 1006.6
20260506195509 57 208 0.9 3.5 0.00 0.00 0.00 91 1006.6
20260506195010 57 170 0.0 2.6 0.00 0.00 0.00 91 1006.6
20260506194530 57 142 0.9 3.5 0.00 0.00 0.00 91 1006.7
20260506194009 57 140 0.9 3.5 0.00 0.00 0.00 91 1006.7
20260506193509 58 152 0.9 2.6 0.00 0.00 0.00 91 1006.8
20260506193019 58 191 0.9 1.7 0.00 0.00 0.00 91 1006.8
20260506192507 58 180 0.0 0.9 0.00 0.00 0.00 92 1006.8
20260506192011 58 150 0.0 0.9 0.00 0.00 0.00 92 1006.8
20260506191524 57 192 0.0 1.7 0.00 0.00 0.00 92 1006.8
20260506191007 57 158 0.0 1.7 0.00 0.00 0.00 92 1006.9
20260506190510 57 143 0.9 1.7 0.00 0.00 0.00 92 1006.9
20260506190025 57 97 0.0 2.6 0.00 0.00 0.00 92 1006.9
20260506185509 57 164 0.0 2.6 0.00 0.00 0.00 92 1007.0
20260506185008 57 150 0.9 1.7 0.00 0.00 0.00 92 1007.0
20260506184528 57 201 0.9 1.7 0.00 0.00 0.00 92 1007.2
20260506184010 57 146 0.0 2.6 0.00 0.00 0.00 93 1007.2
20260506183512 57 107 0.9 2.6 0.00 0.00 0.00 92 1007.2
20260506183026 57 101 0.0 1.7 0.00 0.00 0.00 93 1007.2
20260506182510 56 153 0.9 1.7 0.00 0.00 0.00 92 1007.2
20260506182011 56 96 0.9 1.7 0.00 0.00 0.00 93 1007.4
20260506181526 56 160 0.9 1.7 0.00 0.00 0.00 92 1007.4
20260506181012 56 140 0.0 2.6 0.00 0.00 0.00 93 1007.5
20260506180514 56 109 0.9 2.6 0.00 0.00 0.00 92 1007.5
20260506180033 56 147 0.9 2.6 0.00 0.00 0.00 92 1007.5
20260506175511 56 172 0.9 1.7 0.00 0.00 0.00 93 1007.5
20260506175011 56 144 0.0 2.6 0.00 0.00 0.00 93 1007.5
20260506174527 56 208 0.9 2.6 0.00 0.00 0.00 92 1007.5
20260506174011 56 182 0.9 2.6 0.00 0.00 0.00 93 1007.6
20260506173505 56 85 0.9 2.6 0.00 0.00 0.00 92 1007.6
20260506173014 56 142 0.9 1.7 0.00 0.00 0.00 92 1007.6
20260506172505 56 146 0.0 2.6 0.00 0.00 0.00 92 1007.5
20260506172007 56 66 0.9 2.6 0.00 0.00 0.00 92 1007.6
20260506171536 56 150 0.9 1.7 0.00 0.00 0.00 92 1007.6
20260506171008 56 146 0.9 2.6 0.00 0.00 0.00 92 1007.6
20260506170509 56 191 0.9 2.6 0.00 0.00 0.00 92 1007.6
20260506170023 56 75 0.9 2.6 0.00 0.00 0.00 92 1007.6
20260506165506 56 174 0.9 3.5 0.00 0.00 0.00 92 1007.5
20260506165006 56 161 1.7 3.5 0.00 0.00 0.00 93 1007.6
20260506164524 56 125 0.9 2.6 0.00 0.00 0.00 93 1007.6
20260506164011 56 152 0.9 2.6 0.00 0.00 0.00 93 1007.6
20260506163507 56 96 0.0 3.5 0.00 0.00 0.00 93 1007.6
20260506163029 56 150 1.7 3.5 0.00 0.00 0.00 92 1007.8
20260506162509 56 150 0.9 3.5 0.00 0.00 0.00 93 1007.9
20260506162014 56 122 0.9 3.5 0.00 0.00 0.00 92 1007.7
20260506161521 56 119 0.9 5.2 0.00 0.00 0.00 92 1007.7
20260506161005 56 141 0.9 5.2 0.00 0.00 0.00 92 1007.6
20260506160507 56 136 0.9 6.1 0.00 0.00 0.00 92 1007.8
20260506160020 56 146 1.7 6.1 0.00 0.00 0.00 92 1007.8
20260506155511 56 62 0.9 3.5 0.00 0.00 0.00 92 1007.9
20260506155009 56 134 0.9 1.7 0.00 0.00 0.00 92 1007.9
20260506154525 56 162 0.9 1.7 0.00 0.00 0.00 92 1008.0
20260506154011 56 91 0.0 2.6 0.00 0.00 0.00 92 1008.1
20260506153514 56 94 0.9 4.3 0.00 0.00 0.00 92 1008.5
20260506153025 56 131 0.9 4.3 0.00 0.00 0.00 92 1008.6
20260506152507 56 143 0.9 3.5 0.00 0.00 0.00 92 1008.5
20260506152011 56 108 0.9 3.5 0.00 0.00 0.00 92 1008.3
20260506151526 56 134 0.9 2.6 0.00 0.00 0.00 91 1008.1
20260506151009 56 144 0.9 3.5 0.00 0.00 0.00 92 1008.1
20260506150511 56 202 0.9 3.5 0.00 0.00 0.00 91 1008.1
20260506150023 56 132 0.9 3.5 0.00 0.00 0.00 92 1008.1
20260506145506 56 144 0.9 3.5 0.00 0.00 0.00 91 1008.1
20260506145008 56 110 0.9 2.6 0.00 0.00 0.00 91 1008.1
20260506144519 56 167 0.9 2.6 0.00 0.00 0.00 91 1008.2
20260506144007 56 151 0.0 2.6 0.00 0.00 0.00 91 1008.2
20260506143508 56 77 0.9 2.6 0.00 0.00 0.00 91 1008.3
20260506143024 56 76 0.9 1.7 0.00 0.00 0.00 90 1008.3
20260506142509 56 123 0.0 1.7 0.00 0.00 0.00 91 1008.5
20260506142012 56 117 0.9 1.7 0.00 0.00 0.00 90 1008.6
20260506141526 56 127 0.0 1.7 0.00 0.00 0.00 90 1008.6
20260506141013 56 141 0.9 1.7 0.00 0.00 0.00 90 1008.8
20260506140511 56 159 0.0 1.7 0.00 0.00 0.00 90 1008.8
20260506140028 56 146 0.0 1.7 0.00 0.00 0.00 90 1008.9
20260506135509 56 63 0.9 1.7 0.00 0.00 0.00 90 1008.9
20260506135020 56 141 0.9 1.7 0.00 0.00 0.00 90 1009.0
20260506134603 56 144 0.0 1.7 0.00 0.00 0.00 90 1008.9
20260506134005 56 153 0.9 1.7 0.00 0.00 0.00 90 1009.0
20260506133508 56 143 0.0 1.7 0.00 0.00 0.00 89 1009.0
20260506133022 56 181 0.0 1.7 0.00 0.00 0.00 89 1009.2
20260506132510 57 76 0.9 3.5 0.00 0.00 0.00 88 1009.1
20260506132007 57 63 0.0 3.5 0.00 0.00 0.00 89 1009.1
20260506131527 57 153 1.7 2.6 0.00 0.00 0.00 88 1009.2
20260506131011 57 150 0.0 1.7 0.00 0.00 0.00 88 1009.2
20260506130509 57 152 0.9 1.7 0.00 0.00 0.00 87 1009.2
20260506130026 57 50 0.9 1.7 0.00 0.00 0.00 86 1009.1
20260506125512 57 97 0.9 2.6 0.00 0.00 0.00 86 1009.1
20260506125009 57 144 0.9 2.6 0.00 0.00 0.00 86 1009.1
20260506124526 57 141 0.0 2.6 0.00 0.00 0.00 85 1008.9
20260506124009 57 140 0.0 1.7 0.00 0.00 0.00 85 1008.9
20260506123507 57 105 0.9 1.7 0.00 0.00 0.00 85 1009.0
20260506123026 57 75 0.9 1.7 0.00 0.00 0.00 85 1008.9
20260506122508 57 86 0.9 1.7 0.00 0.00 0.00 85 1008.8
20260506122007 57 99 0.9 1.7 0.00 0.00 0.00 85 1008.8
20260506121519 57 129 0.0 2.6 0.00 0.00 0.00 84 1008.8
20260506121009 57 117 0.0 2.6 0.00 0.00 0.00 84 1008.8
20260506120506 57 67 0.0 2.6 0.00 0.00 0.00 84 1008.8
20260506120024 57 154 0.9 2.6 0.00 0.00 0.00 82 1008.8
20260506115515 58 143 0.9 2.6 0.00 0.00 0.00 82 1008.9
20260506115007 58 99 0.9 2.6 0.00 0.00 0.00 82 1009.0
20260506114534 58 186 0.9 3.5 0.00 0.00 0.00 81 1009.1
20260506114009 58 97 0.9 3.5 0.00 0.00 0.00 81 1009.0
20260506113510 58 75 0.9 3.5 0.00 0.00 0.00 79 1008.9
20260506113033 58 85 0.9 3.5 0.00 0.00 0.00 78 1008.9
20260506112510 58 80 0.0 2.6 0.00 0.00 0.00 77 1008.9
20260506112015 59 125 0.9 3.5 0.00 0.00 0.00 76 1009.0
20260506111525 59 97 0.0 3.5 0.00 0.00 0.00 76 1008.8
20260506111006 59 93 0.9 3.5 0.00 0.00 0.00 76 1008.8
20260506110509 59 134 0.9 1.7 0.00 0.00 0.00 76 1008.9
20260506110021 59 65 0.9 2.6 0.00 0.00 0.00 76 1008.8
20260506105508 59 137 0.0 2.6 0.00 0.00 0.00 75 1008.6
20260506105010 59 70 0.9 2.6 0.00 0.00 0.00 75 1008.6
20260506104526 59 140 0.0 2.6 0.00 0.00 0.00 75 1008.4
20260506104009 59 71 0.9 3.5 0.00 0.00 0.00 75 1008.5
20260506103508 59 86 0.9 3.5 0.00 0.00 0.00 75 1008.6
20260506103029 58 69 0.0 1.7 0.00 0.00 0.00 74 1008.5
20260506102510 58 131 0.0 2.6 0.00 0.00 0.00 74 1008.5
20260506102010 59 130 0.0 2.6 0.00 0.00 0.00 73 1008.4
20260506101528 59 139 0.9 1.7 0.00 0.00 0.00 73 1008.4
20260506101011 59 145 0.0 2.6 0.00 0.00 0.00 73 1008.5
20260506100508 59 96 0.9 2.6 0.00 0.00 0.00 72 1008.4
20260506100033 59 169 0.9 2.6 0.00 0.00 0.00 72 1008.6
20260506095510 59 81 0.9 2.6 0.00 0.00 0.00 71 1008.7
20260506095007 59 116 0.9 2.6 0.00 0.00 0.00 71 1008.6
20260506094524 59 102 0.9 2.6 0.00 0.00 0.00 70 1008.6
20260506094009 59 146 0.9 2.6 0.00 0.00 0.00 70 1008.6
20260506093510 59 159 0.0 1.7 0.00 0.00 0.00 70 1008.6
20260506093028 59 140 0.0 1.7 0.00 0.00 0.00 70 1008.5
20260506092512 59 111 0.9 2.6 0.00 0.00 0.00 69 1008.6
20260506092011 60 109 0.9 2.6 0.00 0.00 0.00 69 1008.5
20260506091528 60 60 0.9 1.7 0.00 0.00 0.00 69 1008.6
20260506091010 60 104 0.0 2.6 0.00 0.00 0.00 68 1008.6
20260506090511 60 103 0.9 2.6 0.00 0.00 0.00 68 1008.5
20260506090016 60 115 0.0 1.7 0.00 0.00 0.00 68 1008.6
20260506085507 60 148 0.0 0.9 0.00 0.00 0.00 67 1008.7
20260506085007 60 151 0.0 2.6 0.00 0.00 0.00 67 1008.8
20260506084504 60 82 0.9 2.6 0.00 0.00 0.00 67 1008.8
20260506084004 60 133 0.0 1.7 0.00 0.00 0.00 67 1008.9
20260506083504 60 154 0.0 1.7 0.00 0.00 0.00 66 1008.9
20260506083006 60 143 0.0 2.6 0.00 0.00 0.00 66 1008.8
20260506082503 60 102 0.0 2.6 0.00 0.00 0.00 66 1008.8
20260506082003 60 148 0.9 2.6 0.00 0.00 0.00 65 1008.8
20260506081511 60 143 0.9 2.6 0.00 0.00 0.00 65 1008.9
20260506081006 60 137 0.9 3.5 0.00 0.00 0.00 65 1008.9
20260506080504 61 134 0.9 3.5 0.00 0.00 0.00 65 1008.8
20260506073510 61 151 1.7 3.5 0.00 0.00 0.00 63 1009.1
20260506073004 61 160 0.9 3.5 0.00 0.00 0.00 63 1009.1
20260506072504 60 131 0.9 2.6 0.00 0.00 0.00 65 1009.1
20260506072003 60 144 0.9 3.5 0.00 0.00 0.00 65 1009.1
20260506071508 61 75 0.9 3.5 0.00 0.00 0.00 64 1009.0
20260506071004 61 141 0.9 1.7 0.00 0.00 0.00 63 1009.2
20260506070503 61 118 0.9 3.5 0.00 0.00 0.00 63 1009.1
20260506062507 61 139 0.0 1.7 0.00 0.00 0.00 63 1009.6
20260506062012 61 198 0.0 1.7 0.00 0.00 0.00 62 1009.7
20260506061534 61 148 0.9 1.7 0.00 0.00 0.00 62 1009.8
20260506061006 61 165 0.9 1.7 0.00 0.00 0.00 62 1009.9
20260506060508 61 155 0.0 2.6 0.00 0.00 0.00 62 1009.9
20260506051011 61 108 0.9 1.7 0.00 0.00 0.00 60 1010.0
20260506050508 61 144 0.0 2.6 0.00 0.00 0.00 60 1010.1
20260506045004 62 140 0.0 1.7 0.00 0.00 0.00 59 1010.2
20260506044512 62 145 0.0 1.7 0.00 0.00 0.00 58 1010.2
20260506044008 62 136 0.9 2.6 0.00 0.00 0.00 58 1010.1
20260506043504 62 143 0.9 3.5 0.00 0.00 0.00 59 1010.2
20260506043015 62 145 0.9 3.5 0.00 0.00 0.00 58 1010.2
20260506042504 62 143 0.9 2.6 0.00 0.00 0.00 58 1010.1
20260506042008 62 141 0.9 2.6 0.00 0.00 0.00 58 1010.2
20260506041517 62 149 0.9 2.6 0.00 0.00 0.00 57 1010.2
20260506041007 62 140 0.0 3.5 0.00 0.00 0.00 57 1010.3
20260506040508 63 150 0.0 3.5 0.00 0.00 0.00 56 1010.3
20260506040026 62 152 0.9 3.5 0.00 0.00 0.00 57 1010.1
20260506035507 62 129 0.9 1.7 0.00 0.00 0.00 57 1010.2
20260506035008 63 108 0.9 3.5 0.00 0.00 0.00 57 1010.2
20260506034526 63 93 0.9 3.5 0.00 0.00 0.00 56 1010.2
20260506034008 63 141 0.9 2.6 0.00 0.00 0.00 55 1010.3
20260506033502 63 160 0.0 2.6 0.00 0.00 0.00 55 1010.3
20260506033015 64 141 0.9 2.6 0.00 0.00 0.00 54 1010.2
20260506032503 64 149 0.9 3.5 0.00 0.00 0.00 54 1010.2
20260506032007 64 148 0.9 3.5 0.00 0.00 0.00 54 1010.1
20260506031521 64 183 0.9 2.6 0.00 0.00 0.00 54 1010.1
20260506031006 64 92 0.9 2.6 0.00 0.00 0.00 53 1010.1
20260506030506 64 161 0.9 3.5 0.00 0.00 0.00 53 1010.1
20260506030017 64 140 1.7 3.5 0.00 0.00 0.00 52 1010.1
20260506025509 64 153 0.9 3.5 0.00 0.00 0.00 53 1010.1
20260506025006 65 59 0.9 3.5 0.00 0.00 0.00 52 1010.2
20260506024536 65 158 1.7 3.5 0.00 0.00 0.00 51 1010.2
20260506024013 65 155 0.9 3.5 0.00 0.00 0.00 51 1010.2
20260506023513 65 150 0.9 4.3 0.00 0.00 0.00 51 1010.3
20260506023027 65 147 1.7 4.3 0.00 0.00 0.00 51 1010.2
20260506022509 66 133 0.9 3.5 0.00 0.00 0.00 50 1010.3
20260506022002 66 121 1.7 3.5 0.00 0.00 0.00 50 1010.3
20260506021511 66 76 0.9 4.3 0.00 0.00 0.00 50 1010.3
20260506021002 66 134 1.7 4.3 0.00 0.00 0.00 50 1010.3
20260506020502 66 50 0.9 3.5 0.00 0.00 0.00 51 1010.3
20260506020014 66 134 0.9 3.5 0.00 0.00 0.00 51 1010.3
20260506015508 66 131 1.7 3.5 0.00 0.00 0.00 49 1010.3
20260506015006 67 137 0.9 2.6 0.00 0.00 0.00 49 1010.2
20260506014522 66 156 0.9 2.6 0.00 0.00 0.00 49 1010.1
20260506014006 67 108 0.9 3.5 0.00 0.00 0.00 50 1010.1
20260506013507 67 131 0.9 3.5 0.00 0.00 0.00 49 1010.0
20260506013027 67 89 0.9 3.5 0.00 0.00 0.00 49 1009.9
20260506012509 67 141 0.9 3.5 0.00 0.00 0.00 50 1009.9
20260506012009 67 148 0.9 3.5 0.00 0.00 0.00 49 1009.9
20260506011555 67 122 0.9 2.6 0.00 0.00 0.00 47 1009.8